Weather History for KMSY - December, 2012

Change the Weather History Date:

Sunday, December 30, 2012

  Actual Average Record
Temperature  
Mean Temperature 42 °F -  
Max Temperature 48 °F 63 °F 81 °F (1990)
Min Temperature 35 °F 45 °F 20 °F (1983)
Degree Days  
Heating Degree Days 24    
Moisture  
Dew Point 29 °F    
Average Humidity 59    
Maximum Humidity 70    
Minimum Humidity 41    
Precipitation  
Precipitation 0.00 in - - ()
Sea Level Pressure  
Sea Level Pressure 30.44 in    
Wind  
Wind Speed 10 mph (NE)    
Max Wind Speed 15 mph    
Max Gust Speed 22 mph    
Visibility 10 miles    
Events      
Averages and records for this station are not official NWS values.
T = Trace of Precipitation, MM = Missing Value Source: NWS Daily Summary

Daily Weather History Graph

Daily Weather History Graph

Search for Another Location

Airport or City:

Trip Planner

Search our weather history database for the weather conditions in past years. The results will help you decide how hot, cold, wet, or windy it might be!

Date:

Astronomy

Dec. 30, 2012 Rise Set
Actual Time 6:56 AM CST 5:11 PM CST
Civil Twilight 6:30 AM CST 5:37 PM CST
Nautical Twilight 6:00 AM CST 6:07 PM CST
Astronomical Twilight 5:31 AM CST 6:36 PM CST
Moon 7:31 PM CST (12/30) 8:15 AM CST (12/30)
Length of Visible Light 11h 07m
Length of Day
10h 14m
Waning Gibbous, 95% of the Moon is Illuminated
Dec 30
Waning Gibbous
Jan 4
Last Quarter
Jan 11
New
Jan 18
First Quarter
Jan 26
Full

Hourly Weather History & Observations

Time (CST) Temp. Windchill Dew Point Humidity Pressure Visibility Wind Dir Wind Speed Gust Speed Precip Events Conditions
12:53 AM 39.0 °F 31.4 °F 27.0 °F 62% 30.43 in 10.0 mi NNE 12.7 mph - N/A   Partly Cloudy
1:53 AM 37.9 °F 29.6 °F 28.9 °F 70% 30.44 in 10.0 mi NNE 13.8 mph - N/A   Clear
2:53 AM 37.0 °F 28.9 °F 28.0 °F 70% 30.45 in 10.0 mi NE 12.7 mph - N/A   Partly Cloudy
3:53 AM 37.0 °F 28.1 °F 28.0 °F 70% 30.43 in 10.0 mi NE 15.0 mph - N/A   Clear
4:53 AM 36.0 °F 27.5 °F 27.0 °F 70% 30.46 in 10.0 mi NE 12.7 mph - N/A   Clear
5:53 AM 36.0 °F 27.1 °F 26.1 °F 67% 30.48 in 10.0 mi NE 13.8 mph - N/A   Partly Cloudy
6:53 AM 35.1 °F 27.4 °F 26.1 °F 70% 30.49 in 10.0 mi NE 10.4 mph - N/A   Mostly Cloudy
7:53 AM 37.0 °F 28.9 °F 26.1 °F 65% 30.51 in 10.0 mi NE 12.7 mph 18.4 mph N/A   Partly Cloudy
8:53 AM 39.0 °F 31.4 °F 27.0 °F 62% 30.53 in 10.0 mi NE 12.7 mph 21.9 mph N/A   Scattered Clouds
9:53 AM 39.9 °F 32.5 °F 28.0 °F 63% 30.53 in 10.0 mi ENE 12.7 mph - N/A   Mostly Cloudy
10:53 AM 42.1 °F 34.5 °F 28.9 °F 60% 30.52 in 10.0 mi NE 15.0 mph 20.7 mph N/A   Mostly Cloudy
11:53 AM 45.0 °F 40.1 °F 28.9 °F 53% 30.48 in 10.0 mi NE 9.2 mph 16.1 mph N/A   Mostly Cloudy
12:53 PM 45.0 °F 41.8 °F 28.0 °F 52% 30.44 in 10.0 mi NNE 5.8 mph - N/A   Mostly Cloudy
1:53 PM 46.9 °F - 28.9 °F 50% 30.42 in 10.0 mi NNE 9.2 mph - N/A   Mostly Cloudy
2:53 PM 48.0 °F - 27.0 °F 44% 30.40 in 10.0 mi NNE 6.9 mph - N/A   Mostly Cloudy
3:53 PM 48.0 °F - 28.0 °F 46% 30.42 in 10.0 mi NW 3.5 mph - N/A   Mostly Cloudy
4:53 PM 46.0 °F - 27.0 °F 47% 30.42 in 10.0 mi Calm Calm - N/A   Mostly Cloudy
5:53 PM 43.0 °F - 30.0 °F 60% 30.43 in 10.0 mi Calm Calm - N/A   Mostly Cloudy
6:53 PM 41.0 °F - 30.9 °F 67% 30.42 in 10.0 mi Calm Calm - N/A   Scattered Clouds
7:53 PM 42.1 °F 39.2 °F 30.0 °F 62% 30.42 in 10.0 mi SSE 4.6 mph - N/A   Partly Cloudy
8:53 PM 42.1 °F - 30.9 °F 65% 30.42 in 10.0 mi Calm Calm - N/A   Partly Cloudy
9:53 PM 39.9 °F 37.8 °F 30.9 °F 70% 30.39 in 10.0 mi East 3.5 mph - N/A   Scattered Clouds
10:53 PM 43.0 °F 40.3 °F 30.9 °F 62% 30.37 in 10.0 mi East 4.6 mph - N/A   Mostly Cloudy
11:53 PM 43.0 °F - 30.9 °F 62% 30.35 in 10.0 mi Calm Calm - N/A   Mostly Cloudy